| time (UTC) | temp F | wind direction | speed MPH | gust MPH | rain 1hr in | rain 24hr in | rain mn in | humidity % | barometer mb |
| 20260505230759 | 74 | 175 | 10.0 | 18.0 | 0.00 | 0.00 | 0.00 | 41 | 1002.4 |
| 20260505230258 | 74 | 186 | 2.0 | 12.0 | 0.00 | 0.00 | 0.00 | 41 | 1002.4 |
| 20260505225758 | 75 | 200 | 4.0 | 21.0 | 0.00 | 0.00 | 0.00 | 40 | 1002.1 |
| 20260505225258 | 75 | 205 | 7.0 | 21.0 | 0.00 | 0.00 | 0.00 | 39 | 1002.1 |
| 20260505224758 | 75 | 197 | 6.0 | 21.0 | 0.00 | 0.00 | 0.00 | 39 | 1002.1 |
| 20260505224258 | 75 | 149 | 9.0 | 16.0 | 0.00 | 0.00 | 0.00 | 39 | 1002.0 |
| 20260505223759 | 76 | 230 | 6.0 | 16.0 | 0.00 | 0.00 | 0.00 | 40 | 1002.0 |
| 20260505223258 | 76 | 194 | 3.0 | 16.0 | 0.00 | 0.00 | 0.00 | 40 | 1002.0 |
| 20260505222758 | 76 | 234 | 9.0 | 16.0 | 0.00 | 0.00 | 0.00 | 40 | 1002.2 |
| 20260505222258 | 76 | 195 | 4.0 | 16.0 | 0.00 | 0.00 | 0.00 | 38 | 1002.2 |
| 20260505221759 | 76 | 185 | 5.0 | 13.0 | 0.00 | 0.00 | 0.00 | 39 | 1002.2 |
| 20260505221259 | 76 | 213 | 2.0 | 15.0 | 0.00 | 0.00 | 0.00 | 39 | 1002.0 |
| 20260505220758 | 76 | 259 | 3.0 | 15.0 | 0.00 | 0.00 | 0.00 | 40 | 1002.0 |
| 20260505220259 | 76 | 195 | 5.0 | 13.0 | 0.00 | 0.00 | 0.00 | 39 | 1002.0 |
| 20260505215758 | 76 | 252 | 2.0 | 17.0 | 0.00 | 0.00 | 0.00 | 40 | 1002.2 |
| 20260505215258 | 76 | 174 | 7.0 | 17.0 | 0.00 | 0.00 | 0.00 | 39 | 1002.2 |
| 20260505214758 | 76 | 238 | 6.0 | 16.0 | 0.00 | 0.00 | 0.00 | 39 | 1002.2 |
| 20260505214258 | 76 | 214 | 3.0 | 18.0 | 0.00 | 0.00 | 0.00 | 40 | 1002.1 |
| 20260505213758 | 76 | 245 | 6.0 | 15.0 | 0.00 | 0.00 | 0.00 | 39 | 1002.1 |
| 20260505213258 | 76 | 234 | 5.0 | 5.0 | 0.00 | 0.00 | 0.00 | 40 | 1002.1 |
| 20260505212759 | 76 | 185 | 3.0 | 13.0 | 0.00 | 0.00 | 0.00 | 41 | 1002.0 |
| 20260505212259 | 76 | 227 | 2.0 | 13.0 | 0.00 | 0.00 | 0.00 | 40 | 1002.0 |
| 20260505211758 | 76 | 184 | 6.0 | 13.0 | 0.00 | 0.00 | 0.00 | 39 | 1002.0 |
| 20260505211258 | 76 | 195 | 13.0 | 22.0 | 0.00 | 0.00 | 0.00 | 41 | 1001.7 |
| 20260505210758 | 76 | 162 | 3.0 | 22.0 | 0.00 | 0.00 | 0.00 | 39 | 1001.7 |
| 20260505210259 | 76 | 274 | 9.0 | 22.0 | 0.00 | 0.00 | 0.00 | 39 | 1001.7 |
| 20260505205758 | 76 | 257 | 6.0 | 18.0 | 0.00 | 0.00 | 0.00 | 39 | 1001.7 |
| 20260505205258 | 76 | 192 | 7.0 | 14.0 | 0.00 | 0.00 | 0.00 | 39 | 1001.7 |
| 20260505204758 | 76 | 200 | 4.0 | 13.0 | 0.00 | 0.00 | 0.00 | 40 | 1001.7 |
| 20260505204258 | 76 | 229 | 6.0 | 16.0 | 0.00 | 0.00 | 0.00 | 39 | 1001.7 |
| 20260505203759 | 77 | 278 | 9.0 | 15.0 | 0.00 | 0.00 | 0.00 | 38 | 1001.7 |
| 20260505203258 | 77 | 242 | 4.0 | 13.0 | 0.00 | 0.00 | 0.00 | 38 | 1001.7 |
| 20260505202758 | 78 | 219 | 6.0 | 16.0 | 0.00 | 0.00 | 0.00 | 39 | 1001.8 |
| 20260505202258 | 77 | 262 | 4.0 | 16.0 | 0.00 | 0.00 | 0.00 | 39 | 1001.8 |
| 20260505201758 | 77 | 205 | 6.0 | 16.0 | 0.00 | 0.00 | 0.00 | 38 | 1001.8 |
| 20260505201258 | 77 | 218 | 7.0 | 16.0 | 0.00 | 0.00 | 0.00 | 37 | 1002.0 |
| 20260505200758 | 77 | 188 | 3.0 | 16.0 | 0.00 | 0.00 | 0.00 | 37 | 1002.0 |
| 20260505200258 | 77 | 264 | 2.0 | 10.0 | 0.00 | 0.00 | 0.00 | 36 | 1002.0 |
| 20260505195758 | 78 | 204 | 3.0 | 16.0 | 0.00 | 0.00 | 0.00 | 36 | 1001.7 |
| 20260505195258 | 78 | 216 | 10.0 | 16.0 | 0.00 | 0.00 | 0.00 | 36 | 1001.7 |
| 20260505194758 | 77 | 271 | 5.0 | 16.0 | 0.00 | 0.00 | 0.00 | 37 | 1001.7 |
| 20260505194258 | 77 | 134 | 10.0 | 22.0 | 0.00 | 0.00 | 0.00 | 36 | 1001.7 |
| 20260505193758 | 78 | 231 | 4.0 | 17.0 | 0.00 | 0.00 | 0.00 | 35 | 1001.7 |
| 20260505193258 | 78 | 250 | 6.0 | 12.0 | 0.00 | 0.00 | 0.00 | 37 | 1001.7 |
| 20260505192758 | 78 | 203 | 14.0 | 16.0 | 0.00 | 0.00 | 0.00 | 35 | 1002.0 |
| 20260505192258 | 78 | 144 | 4.0 | 16.0 | 0.00 | 0.00 | 0.00 | 35 | 1002.0 |
| 20260505191759 | 77 | 252 | 7.0 | 16.0 | 0.00 | 0.00 | 0.00 | 35 | 1002.0 |
| 20260505191259 | 77 | 190 | 6.0 | 18.0 | 0.00 | 0.00 | 0.00 | 36 | 1002.1 |
| 20260505190759 | 78 | 176 | 16.0 | 18.0 | 0.00 | 0.00 | 0.00 | 35 | 1002.1 |
| 20260505190259 | 78 | 229 | 10.0 | 15.0 | 0.00 | 0.00 | 0.00 | 34 | 1002.1 |
| 20260505185758 | 78 | 202 | 6.0 | 18.0 | 0.00 | 0.00 | 0.00 | 34 | 1002.3 |
| 20260505185259 | 78 | 207 | 5.0 | 15.0 | 0.00 | 0.00 | 0.00 | 34 | 1002.3 |
| 20260505184758 | 79 | 185 | 7.0 | 12.0 | 0.00 | 0.00 | 0.00 | 34 | 1002.3 |
| 20260505184258 | 79 | 307 | 7.0 | 18.0 | 0.00 | 0.00 | 0.00 | 34 | 1002.4 |
| 20260505183759 | 78 | 210 | 4.0 | 18.0 | 0.00 | 0.00 | 0.00 | 34 | 1002.4 |
| 20260505183258 | 78 | 228 | 3.0 | 14.0 | 0.00 | 0.00 | 0.00 | 34 | 1002.4 |
| 20260505182759 | 78 | 231 | 6.0 | 26.0 | 0.00 | 0.00 | 0.00 | 34 | 1002.6 |
| 20260505182259 | 78 | 187 | 4.0 | 20.0 | 0.00 | 0.00 | 0.00 | 35 | 1002.6 |
| 20260505181758 | 78 | 222 | 5.0 | 12.0 | 0.00 | 0.00 | 0.00 | 34 | 1002.6 |
| 20260505181258 | 79 | 262 | 7.0 | 16.0 | 0.00 | 0.00 | 0.00 | 37 | 1002.7 |
| 20260505180758 | 78 | 203 | 2.0 | 13.0 | 0.00 | 0.00 | 0.00 | 40 | 1002.7 |
| 20260505180258 | 78 | 142 | 5.0 | 10.0 | 0.00 | 0.00 | 0.00 | 38 | 1002.7 |
| 20260505175759 | 78 | 248 | 2.0 | 15.0 | 0.00 | 0.00 | 0.00 | 37 | 1002.9 |
| 20260505175258 | 78 | 257 | 6.0 | 12.0 | 0.00 | 0.00 | 0.00 | 39 | 1002.9 |
| 20260505174759 | 77 | 173 | 4.0 | 12.0 | 0.00 | 0.00 | 0.00 | 37 | 1002.9 |
| 20260505174258 | 77 | 281 | 2.0 | 21.0 | 0.00 | 0.00 | 0.00 | 38 | 1002.9 |
| 20260505173758 | 78 | 175 | 10.0 | 17.0 | 0.00 | 0.00 | 0.00 | 40 | 1002.9 |
| 20260505173258 | 77 | 187 | 4.0 | 14.0 | 0.00 | 0.00 | 0.00 | 40 | 1002.9 |
| 20260505172758 | 77 | 219 | 3.0 | 18.0 | 0.00 | 0.00 | 0.00 | 42 | 1003.2 |
| 20260505172258 | 77 | 284 | 9.0 | 18.0 | 0.00 | 0.00 | 0.00 | 42 | 1003.2 |
| 20260505171759 | 77 | 217 | 7.0 | 10.0 | 0.00 | 0.00 | 0.00 | 43 | 1003.2 |
| 20260505171259 | 77 | 205 | 4.0 | 20.0 | 0.00 | 0.00 | 0.00 | 43 | 1003.3 |
| 20260505170758 | 76 | 220 | 7.0 | 20.0 | 0.00 | 0.00 | 0.00 | 42 | 1003.3 |
| 20260505170259 | 76 | 288 | 4.0 | 13.0 | 0.00 | 0.00 | 0.00 | 41 | 1003.3 |
| 20260505165758 | 76 | 139 | 4.0 | 14.0 | 0.00 | 0.00 | 0.00 | 42 | 1003.7 |
| 20260505165258 | 76 | 186 | 6.0 | 14.0 | 0.00 | 0.00 | 0.00 | 45 | 1003.7 |
| 20260505164759 | 76 | 294 | 6.0 | 9.0 | 0.00 | 0.00 | 0.00 | 46 | 1003.7 |
| 20260505164258 | 75 | 237 | 2.0 | 16.0 | 0.00 | 0.00 | 0.00 | 45 | 1003.8 |
| 20260505163758 | 76 | 281 | 13.0 | 15.0 | 0.00 | 0.00 | 0.00 | 44 | 1003.8 |
| 20260505163258 | 75 | 245 | 4.0 | 9.0 | 0.00 | 0.00 | 0.00 | 45 | 1003.8 |
| 20260505162758 | 75 | 184 | 4.0 | 17.0 | 0.00 | 0.00 | 0.00 | 45 | 1003.8 |
| 20260505162258 | 75 | 224 | 5.0 | 17.0 | 0.00 | 0.00 | 0.00 | 45 | 1003.8 |
| 20260505161758 | 75 | 195 | 3.0 | 16.0 | 0.00 | 0.00 | 0.00 | 44 | 1003.8 |
| 20260505161258 | 75 | 285 | 6.0 | 12.0 | 0.00 | 0.00 | 0.00 | 46 | 1004.0 |
| 20260505160758 | 74 | 227 | 2.0 | 12.0 | 0.00 | 0.00 | 0.00 | 47 | 1004.0 |
| 20260505160258 | 75 | 215 | 7.0 | 12.0 | 0.00 | 0.00 | 0.00 | 45 | 1004.0 |
| 20260505153258 | 74 | 244 | 3.0 | 12.0 | 0.00 | 0.00 | 0.00 | 48 | 1004.3 |
| 20260505152758 | 73 | 334 | 4.0 | 15.0 | 0.00 | 0.00 | 0.00 | 48 | 1004.3 |
| 20260505152258 | 73 | 271 | 12.0 | 13.0 | 0.00 | 0.00 | 0.00 | 50 | 1004.3 |
| 20260505151759 | 73 | 247 | 3.0 | 6.0 | 0.00 | 0.00 | 0.00 | 51 | 1004.3 |
| 20260505151258 | 72 | 185 | 3.0 | 11.0 | 0.00 | 0.00 | 0.00 | 51 | 1004.4 |
| 20260505150758 | 72 | 261 | 1.0 | 11.0 | 0.00 | 0.00 | 0.00 | 51 | 1004.4 |
| 20260505150258 | 71 | 221 | 2.0 | 6.0 | 0.00 | 0.00 | 0.00 | 53 | 1004.4 |
| 20260505140258 | 67 | 231 | 3.0 | 7.0 | 0.00 | 0.00 | 0.00 | 59 | 1005.1 |
| 20260505130258 | 62 | 214 | 3.0 | 9.0 | 0.00 | 0.00 | 0.00 | 65 | 1005.2 |
| 20260505124759 | 61 | 190 | 3.0 | 5.0 | 0.00 | 0.00 | 0.00 | 68 | 1005.1 |
| 20260505124258 | 60 | 181 | 3.0 | 9.0 | 0.00 | 0.00 | 0.00 | 68 | 1005.0 |
| 20260505123758 | 60 | 188 | 6.0 | 9.0 | 0.00 | 0.00 | 0.00 | 70 | 1005.0 |
| 20260505123258 | 59 | 200 | 1.0 | 6.0 | 0.00 | 0.00 | 0.00 | 70 | 1005.0 |
| 20260505122758 | 59 | 196 | 2.0 | 10.0 | 0.00 | 0.00 | 0.00 | 71 | 1004.9 |
| 20260505122258 | 59 | 195 | 2.0 | 10.0 | 0.00 | 0.00 | 0.00 | 72 | 1004.9 |
| 20260505121759 | 58 | 188 | 3.0 | 5.0 | 0.00 | 0.00 | 0.00 | 73 | 1004.9 |
| 20260505121258 | 58 | 226 | 3.0 | 7.0 | 0.00 | 0.00 | 0.00 | 72 | 1004.8 |
| 20260505120758 | 58 | 199 | 2.0 | 7.0 | 0.00 | 0.00 | 0.00 | 73 | 1004.8 |
| 20260505120258 | 57 | 169 | 2.0 | 7.0 | 0.00 | 0.00 | 0.00 | 75 | 1004.8 |
| 20260505115758 | 57 | 174 | 1.0 | 9.0 | 0.00 | 0.00 | 0.00 | 75 | 1004.8 |
| 20260505115259 | 56 | 171 | 4.0 | 9.0 | 0.00 | 0.00 | 0.00 | 77 | 1004.8 |
| 20260505114758 | 56 | 189 | 1.0 | 6.0 | 0.00 | 0.00 | 0.00 | 78 | 1004.8 |
| 20260505114258 | 55 | 155 | 1.0 | 6.0 | 0.00 | 0.00 | 0.00 | 79 | 1004.8 |
| 20260505113758 | 55 | 164 | 3.0 | 6.0 | 0.00 | 0.00 | 0.00 | 79 | 1004.8 |
| 20260505113258 | 55 | 140 | 5.0 | 6.0 | 0.00 | 0.00 | 0.00 | 80 | 1004.8 |
| 20260505112758 | 54 | 165 | 2.0 | 7.0 | 0.00 | 0.00 | 0.00 | 80 | 1004.9 |
| 20260505112258 | 54 | 160 | 1.0 | 7.0 | 0.00 | 0.00 | 0.00 | 80 | 1004.9 |
| 20260505111758 | 54 | 183 | 1.0 | 7.0 | 0.00 | 0.00 | 0.00 | 80 | 1004.9 |
| 20260505111258 | 54 | 164 | 1.0 | 6.0 | 0.00 | 0.00 | 0.00 | 81 | 1004.8 |
| 20260505110758 | 53 | 167 | 3.0 | 6.0 | 0.00 | 0.00 | 0.00 | 81 | 1004.8 |
| 20260505110258 | 53 | 150 | 2.0 | 6.0 | 0.00 | 0.00 | 0.00 | 82 | 1004.8 |
| 20260505101758 | 52 | 165 | 1.0 | 6.0 | 0.00 | 0.00 | 0.00 | 83 | 1004.4 |
| 20260505101259 | 52 | 160 | 2.0 | 3.0 | 0.00 | 0.00 | 0.00 | 83 | 1004.3 |
| 20260505100759 | 53 | 0 | 0.0 | 3.0 | 0.00 | 0.00 | 0.00 | 82 | 1004.3 |
| 20260505100258 | 53 | 128 | 1.0 | 2.0 | 0.00 | 0.00 | 0.00 | 82 | 1004.3 |
| 20260505095758 | 53 | 139 | 1.0 | 4.0 | 0.00 | 0.00 | 0.00 | 82 | 1004.3 |
| 20260505095258 | 53 | 129 | 4.0 | 4.0 | 0.00 | 0.00 | 0.00 | 82 | 1004.3 |
| 20260505094758 | 53 | 0 | 0.0 | 2.0 | 0.00 | 0.00 | 0.00 | 82 | 1004.3 |
| 20260505094258 | 53 | 153 | 1.0 | 2.0 | 0.00 | 0.00 | 0.00 | 81 | 1004.5 |
| 20260505093758 | 54 | 0 | 0.0 | 2.0 | 0.00 | 0.00 | 0.00 | 81 | 1004.5 |
| 20260505093258 | 54 | 0 | 0.0 | 2.0 | 0.00 | 0.00 | 0.00 | 80 | 1004.5 |
| 20260505092759 | 55 | 0 | 0.0 | 7.0 | 0.00 | 0.00 | 0.00 | 78 | 1004.7 |
| 20260505092259 | 55 | 145 | 6.0 | 7.0 | 0.00 | 0.00 | 0.00 | 77 | 1004.7 |
| 20260505091758 | 56 | 257 | 1.0 | 2.0 | 0.00 | 0.00 | 0.00 | 75 | 1004.7 |
| 20260505091258 | 56 | 259 | 2.0 | 3.0 | 0.00 | 0.00 | 0.00 | 75 | 1004.1 |
| 20260505090758 | 57 | 0 | 0.0 | 3.0 | 0.00 | 0.00 | 0.00 | 75 | 1004.1 |
| 20260505090258 | 57 | 252 | 2.0 | 3.0 | 0.00 | 0.00 | 0.00 | 73 | 1004.1 |
| 20260505085758 | 58 | 298 | 1.0 | 5.0 | 0.00 | 0.00 | 0.00 | 71 | 1004.1 |
| 20260505085258 | 58 | 268 | 3.0 | 5.0 | 0.00 | 0.00 | 0.00 | 68 | 1004.1 |
| 20260505084758 | 58 | 266 | 5.0 | 5.0 | 0.00 | 0.00 | 0.00 | 69 | 1004.1 |
| 20260505084258 | 58 | 246 | 3.0 | 6.0 | 0.00 | 0.00 | 0.00 | 69 | 1003.9 |
| 20260505083758 | 58 | 259 | 4.0 | 6.0 | 0.00 | 0.00 | 0.00 | 69 | 1003.9 |
| 20260505083258 | 58 | 224 | 1.0 | 4.0 | 0.00 | 0.00 | 0.00 | 69 | 1003.9 |
| 20260505082758 | 58 | 191 | 6.0 | 7.0 | 0.00 | 0.00 | 0.00 | 68 | 1003.6 |
| 20260505082258 | 58 | 176 | 3.0 | 7.0 | 0.00 | 0.00 | 0.00 | 68 | 1003.6 |
| 20260505081758 | 58 | 169 | 1.0 | 4.0 | 0.00 | 0.00 | 0.00 | 68 | 1003.6 |
| 20260505081259 | 58 | 217 | 2.0 | 12.0 | 0.00 | 0.00 | 0.00 | 68 | 1003.7 |
| 20260505080758 | 58 | 231 | 4.0 | 10.0 | 0.00 | 0.00 | 0.00 | 68 | 1003.7 |
| 20260505080258 | 58 | 201 | 2.0 | 7.0 | 0.00 | 0.00 | 0.00 | 68 | 1003.7 |
| 20260505075758 | 58 | 194 | 5.0 | 10.0 | 0.00 | 0.00 | 0.00 | 68 | 1003.6 |
| 20260505075258 | 57 | 194 | 4.0 | 10.0 | 0.00 | 0.00 | 0.00 | 68 | 1003.6 |
| 20260505074758 | 57 | 185 | 2.0 | 5.0 | 0.00 | 0.00 | 0.00 | 68 | 1003.6 |
| 20260505074258 | 57 | 136 | 4.0 | 9.0 | 0.00 | 0.00 | 0.00 | 68 | 1003.9 |
| 20260505073758 | 57 | 179 | 5.0 | 9.0 | 0.00 | 0.00 | 0.00 | 67 | 1003.9 |
| 20260505073258 | 57 | 196 | 4.0 | 7.0 | 0.00 | 0.00 | 0.00 | 67 | 1003.9 |
| 20260505072758 | 57 | 191 | 2.0 | 10.0 | 0.00 | 0.00 | 0.00 | 67 | 1003.7 |
| 20260505072259 | 58 | 188 | 2.0 | 10.0 | 0.00 | 0.00 | 0.00 | 66 | 1003.7 |
| 20260505071758 | 58 | 195 | 6.0 | 7.0 | 0.00 | 0.00 | 0.00 | 66 | 1003.7 |
| 20260505071258 | 58 | 205 | 3.0 | 7.0 | 0.00 | 0.00 | 0.00 | 66 | 1003.7 |
| 20260505070759 | 58 | 141 | 3.0 | 6.0 | 0.00 | 0.00 | 0.00 | 65 | 1003.7 |
| 20260505070258 | 58 | 259 | 6.0 | 6.0 | 0.00 | 0.00 | 0.00 | 65 | 1003.7 |
| 20260505065758 | 58 | 194 | 1.0 | 10.0 | 0.00 | 0.00 | 0.00 | 65 | 1003.7 |
| 20260505065258 | 58 | 188 | 6.0 | 10.0 | 0.00 | 0.00 | 0.00 | 65 | 1003.7 |
| 20260505064758 | 57 | 195 | 3.0 | 7.0 | 0.00 | 0.00 | 0.00 | 64 | 1003.7 |
| 20260505064258 | 58 | 192 | 1.0 | 7.0 | 0.00 | 0.00 | 0.00 | 64 | 1003.8 |
| 20260505063758 | 58 | 226 | 2.0 | 6.0 | 0.00 | 0.00 | 0.00 | 63 | 1003.8 |
| 20260505063258 | 58 | 200 | 3.0 | 5.0 | 0.00 | 0.00 | 0.00 | 63 | 1003.8 |
| 20260505062758 | 58 | 205 | 2.0 | 10.0 | 0.00 | 0.00 | 0.00 | 63 | 1003.9 |
| 20260505062258 | 58 | 204 | 2.0 | 6.0 | 0.00 | 0.00 | 0.00 | 63 | 1003.9 |
| 20260505061758 | 58 | 217 | 3.0 | 5.0 | 0.00 | 0.00 | 0.00 | 62 | 1003.9 |
| 20260505061258 | 58 | 203 | 3.0 | 9.0 | 0.00 | 0.00 | 0.00 | 62 | 1003.7 |
| 20260505060759 | 58 | 214 | 1.0 | 7.0 | 0.00 | 0.00 | 0.00 | 62 | 1003.7 |
| 20260505060258 | 58 | 232 | 1.0 | 7.0 | 0.00 | 0.00 | 0.00 | 62 | 1003.7 |
| 20260505055758 | 58 | 205 | 11.0 | 12.0 | 0.00 | 0.00 | 0.00 | 61 | 1003.6 |
| 20260505055258 | 58 | 300 | 1.0 | 11.0 | 0.00 | 0.00 | 0.00 | 61 | 1003.6 |
| 20260505054758 | 58 | 184 | 2.0 | 11.0 | 0.00 | 0.00 | 0.00 | 61 | 1003.6 |
| 20260505054258 | 58 | 194 | 6.0 | 11.0 | 0.00 | 0.00 | 0.00 | 61 | 1003.7 |
| 20260505053758 | 58 | 184 | 5.0 | 10.0 | 0.00 | 0.00 | 0.00 | 60 | 1003.7 |
| 20260505053258 | 58 | 169 | 3.0 | 6.0 | 0.00 | 0.00 | 0.00 | 60 | 1003.7 |
| 20260505052759 | 58 | 182 | 1.0 | 14.0 | 0.00 | 0.00 | 0.00 | 60 | 1003.7 |
| 20260505052258 | 58 | 132 | 2.0 | 10.0 | 0.00 | 0.00 | 0.00 | 60 | 1003.7 |
| 20260505051758 | 58 | 169 | 3.0 | 10.0 | 0.00 | 0.00 | 0.00 | 59 | 1003.7 |
| 20260505051258 | 58 | 174 | 2.0 | 14.0 | 0.00 | 0.00 | 0.00 | 59 | 1003.7 |
| 20260505050758 | 58 | 127 | 4.0 | 14.0 | 0.00 | 0.00 | 0.00 | 59 | 1003.7 |
| 20260505050258 | 58 | 139 | 1.0 | 11.0 | 0.00 | 0.00 | 0.00 | 58 | 1003.7 |
| 20260505041258 | 58 | 155 | 4.0 | 13.0 | 0.00 | 0.00 | 0.00 | 57 | 1003.7 |
| 20260505040758 | 58 | 157 | 4.0 | 12.0 | 0.00 | 0.00 | 0.00 | 57 | 1003.7 |
| 20260505040258 | 58 | 184 | 3.0 | 10.0 | 0.00 | 0.00 | 0.00 | 56 | 1003.7 |
| 20260505035758 | 58 | 165 | 6.0 | 10.0 | 0.00 | 0.00 | 0.00 | 57 | 1003.7 |
| 20260505035258 | 58 | 166 | 2.0 | 7.0 | 0.00 | 0.00 | 0.00 | 56 | 1003.7 |
| 20260505034759 | 58 | 178 | 4.0 | 7.0 | 0.00 | 0.00 | 0.00 | 57 | 1003.7 |
| 20260505034258 | 58 | 175 | 2.0 | 10.0 | 0.00 | 0.00 | 0.00 | 56 | 1003.6 |
| 20260505033758 | 59 | 175 | 2.0 | 10.0 | 0.00 | 0.00 | 0.00 | 55 | 1003.6 |
| 20260505033258 | 59 | 155 | 4.0 | 6.0 | 0.00 | 0.00 | 0.00 | 55 | 1003.6 |
| 20260505032759 | 59 | 183 | 3.0 | 13.0 | 0.00 | 0.00 | 0.00 | 55 | 1003.7 |
| 20260505032258 | 59 | 151 | 4.0 | 13.0 | 0.00 | 0.00 | 0.00 | 54 | 1003.7 |
| 20260505031758 | 59 | 212 | 11.0 | 11.0 | 0.00 | 0.00 | 0.00 | 54 | 1003.7 |
| 20260505031258 | 60 | 168 | 2.0 | 13.0 | 0.00 | 0.00 | 0.00 | 54 | 1003.9 |
| 20260505030758 | 60 | 160 | 2.0 | 13.0 | 0.00 | 0.00 | 0.00 | 53 | 1003.9 |
| 20260505030258 | 60 | 120 | 4.0 | 11.0 | 0.00 | 0.00 | 0.00 | 53 | 1003.9 |
| 20260505025758 | 60 | 183 | 3.0 | 11.0 | 0.00 | 0.00 | 0.00 | 52 | 1003.9 |
| 20260505025258 | 60 | 162 | 3.0 | 11.0 | 0.00 | 0.00 | 0.00 | 52 | 1003.9 |
| 20260505024759 | 61 | 162 | 5.0 | 10.0 | 0.00 | 0.00 | 0.00 | 52 | 1003.9 |
| 20260505024259 | 61 | 174 | 6.0 | 13.0 | 0.00 | 0.00 | 0.00 | 51 | 1004.1 |
| 20260505023758 | 61 | 150 | 7.0 | 10.0 | 0.00 | 0.00 | 0.00 | 50 | 1004.1 |
| 20260505023258 | 61 | 138 | 6.0 | 10.0 | 0.00 | 0.00 | 0.00 | 51 | 1004.1 |
| 20260505022759 | 61 | 178 | 2.0 | 12.0 | 0.00 | 0.00 | 0.00 | 50 | 1004.2 |
| 20260505022258 | 61 | 150 | 8.0 | 11.0 | 0.00 | 0.00 | 0.00 | 51 | 1004.2 |
| 20260505021758 | 61 | 162 | 3.0 | 11.0 | 0.00 | 0.00 | 0.00 | 51 | 1004.2 |
| 20260505021258 | 61 | 181 | 2.0 | 14.0 | 0.00 | 0.00 | 0.00 | 50 | 1004.4 |
| 20260505020758 | 62 | 209 | 3.0 | 14.0 | 0.00 | 0.00 | 0.00 | 49 | 1004.4 |
| 20260505020258 | 62 | 181 | 4.0 | 12.0 | 0.00 | 0.00 | 0.00 | 49 | 1004.4 |
| 20260505015758 | 62 | 142 | 3.0 | 10.0 | 0.00 | 0.00 | 0.00 | 49 | 1004.1 |
| 20260505015258 | 62 | 183 | 6.0 | 10.0 | 0.00 | 0.00 | 0.00 | 49 | 1004.1 |
| 20260505014758 | 62 | 199 | 2.0 | 7.0 | 0.00 | 0.00 | 0.00 | 48 | 1004.1 |
| 20260505014258 | 62 | 167 | 3.0 | 14.0 | 0.00 | 0.00 | 0.00 | 49 | 1004.1 |
| 20260505013758 | 62 | 189 | 7.0 | 11.0 | 0.00 | 0.00 | 0.00 | 48 | 1004.1 |
| 20260505013258 | 62 | 162 | 4.0 | 11.0 | 0.00 | 0.00 | 0.00 | 49 | 1004.1 |
| 20260505012758 | 62 | 70 | 2.0 | 10.0 | 0.00 | 0.00 | 0.00 | 48 | 1003.9 |
| 20260505012258 | 62 | 129 | 5.0 | 10.0 | 0.00 | 0.00 | 0.00 | 49 | 1003.9 |
| 20260505011758 | 62 | 0 | 0.0 | 10.0 | 0.00 | 0.00 | 0.00 | 48 | 1003.9 |
| 20260505011259 | 62 | 160 | 2.0 | 11.0 | 0.00 | 0.00 | 0.00 | 48 | 1003.9 |
| 20260505010758 | 62 | 154 | 3.0 | 11.0 | 0.00 | 0.00 | 0.00 | 47 | 1003.9 |
| 20260505010258 | 62 | 184 | 4.0 | 11.0 | 0.00 | 0.00 | 0.00 | 47 | 1003.9 |
| 20260505005758 | 62 | 167 | 5.0 | 11.0 | 0.00 | 0.00 | 0.00 | 47 | 1003.9 |
| 20260505005258 | 63 | 200 | 2.0 | 11.0 | 0.00 | 0.00 | 0.00 | 47 | 1003.9 |
| 20260505004758 | 62 | 149 | 4.0 | 5.0 | 0.00 | 0.00 | 0.00 | 48 | 1003.9 |
| 20260505004258 | 63 | 0 | 0.0 | 9.0 | 0.00 | 0.00 | 0.00 | 47 | 1003.8 |
| 20260505003758 | 63 | 163 | 2.0 | 9.0 | 0.00 | 0.00 | 0.00 | 46 | 1003.8 |
| 20260505003258 | 63 | 175 | 4.0 | 7.0 | 0.00 | 0.00 | 0.00 | 46 | 1003.8 |
| 20260505002759 | 63 | 214 | 2.0 | 13.0 | 0.00 | 0.00 | 0.00 | 47 | 1003.9 |
| 20260505002258 | 63 | 254 | 4.0 | 13.0 | 0.00 | 0.00 | 0.00 | 46 | 1003.9 |
| 20260505001758 | 63 | 187 | 3.0 | 13.0 | 0.00 | 0.00 | 0.00 | 45 | 1003.9 |
| 20260505001258 | 63 | 175 | 1.0 | 9.0 | 0.00 | 0.00 | 0.00 | 45 | 1003.8 |
| 20260505000758 | 64 | 184 | 3.0 | 9.0 | 0.00 | 0.00 | 0.00 | 45 | 1003.8 |
| 20260505000258 | 64 | 205 | 6.0 | 6.0 | 0.00 | 0.00 | 0.00 | 44 | 1003.8 |
| 20260504235758 | 64 | 226 | 1.0 | 11.0 | 0.00 | 0.00 | 0.00 | 44 | 1003.8 |
| 20260504235258 | 64 | 176 | 7.0 | 11.0 | 0.00 | 0.00 | 0.00 | 44 | 1003.8 |
| 20260504234759 | 64 | 200 | 3.0 | 4.0 | 0.00 | 0.00 | 0.00 | 44 | 1003.8 |
| 20260504234258 | 65 | 189 | 3.0 | 10.0 | 0.00 | 0.00 | 0.00 | 44 | 1003.5 |
| 20260504233759 | 65 | 219 | 1.0 | 10.0 | 0.00 | 0.00 | 0.00 | 44 | 1003.5 |
| 20260504233258 | 65 | 0 | 0.0 | 9.0 | 0.00 | 0.00 | 0.00 | 44 | 1003.5 |
| 20260504232758 | 65 | 200 | 1.0 | 10.0 | 0.00 | 0.00 | 0.00 | 44 | 1003.4 |
| 20260504232258 | 66 | 0 | 0.0 | 10.0 | 0.00 | 0.00 | 0.00 | 44 | 1003.4 |
| 20260504231758 | 66 | 208 | 3.0 | 10.0 | 0.00 | 0.00 | 0.00 | 42 | 1003.4 |
| 20260504231258 | 66 | 201 | 2.0 | 12.0 | 0.00 | 0.00 | 0.00 | 44 | 1003.5 |